Powrót do katalogu

STARLINK-36198

AktywnyŁącznośćVLEO
NORAD 67167·PAYLOAD·🇺🇸 United States

Wystrzelony Dec 17, 2025 z Cape Canaveral Space Force Station

Loading…

Następne Przeloty (najbliższe 24 godziny)

TLE

ŚwieżeSource: CelesTrak SupGP

Epoka: Sep 14, 2026, 22:54 UTC

1 67167C 25303E   26257.95465278 -.00003076  00000+0 -11140-3 0  2572
2 67167  43.0011 322.2245 0001396 265.7755 194.4248 15.27576852    15

Śledź STARLINK-36198 w czasie rzeczywistym z AllMySat

Download on the App Store